Regional Weather Roundup
Issued by NWS Little Rock, AR

Home | Current Version | Previous Version | Graphics & Text | Print | Product List | Glossary On
Versions: 1 2 3 4 5 6 7 8 9 10 11 12 13 14 15 16 17 18 19 20 21 22 23 24 25 26 27 28 29 30 31 32 33 34 35 36 37 38 39 40 41 42 43 44 45 46 47 48 49 50
000
ASUS44 KLZK 290405
RWRLZK

WEATHER ROUNDUP FOR ARKANSAS
NATIONAL WEATHER SERVICE LITTLE ROCK AR
1100 PM CDT FRI APR 28 2017

NOTE: "FAIR" INDICATES FEW OR NO CLOUDS BELOW 12,000 FEET WITH NO
SIGNIFICANT WEATHER AND/OR OBSTRUCTIONS TO VISIBILITY.

ARZ001-003-010-029-290500-
NORTHWEST ARKANSAS

CITY           SKY/WX    TMP DP  RH WIND       PRES   REMARKS
FAYETTEVILLE   CLOUDY    65  65 100 VRB6      29.69F THUNDER FOG
FORT SMITH     TSTM      70  66  87 E9        29.66F FOG
HARRISON       TSTM      66  65  96 W12G39    29.76F FOG
BENTONVILLE    CLOUDY    64  63  94 NE7       29.74F THUNDER
ROGERS         TSTM      64  63  94 NE12      29.76F FOG
SILOAM SPGS    CLOUDY    64  61  88 NE9       29.71F
HIGHFILL       CLOUDY    65  64  97 N9        29.73F THUNDER FOG
$$

ARZ004-005-016-290500-
NORTH CENTRAL ARKANSAS

CITY           SKY/WX    TMP DP  RH WIND       PRES   REMARKS
BATESVILLE     MOCLDY    70  66  88 E3        29.78F
FLIPPIN        CLOUDY   N/A N/A N/A E6        29.71F
MTN HOME       CLOUDY    64  63  96 SE6       29.74F
$$

ARZ040-041-290500-
WEST CENTRAL ARKANSAS

CITY           SKY/WX    TMP DP  RH WIND       PRES   REMARKS
MENA           CLOUDY    81  77  89 SE8G23    29.72F HX  88
$$

ARZ009-017-025-026-028-290500-
NORTHEAST ARKANSAS

CITY           SKY/WX    TMP DP  RH WIND       PRES   REMARKS
JONESBORO      MOCLDY    76  71  85 CALM      29.80S
NEWPORT        CLEAR     74  71  91 SE8       29.79F
WALNUT RIDGE   CLEAR     70  64  83 SE7       29.77F
BLYTHEVILLE    MOCLDY    78  71  79 S12       29.82R
$$

ARZ022-023-033-042-044-290500-
CENTRAL ARKANSAS

CITY           SKY/WX    TMP DP  RH WIND       PRES   REMARKS
LITTLE ROCK    CLOUDY    77  73  87 SE6       29.78R
N LITTLE ROCK    N/A     78  73  83 S8G16     29.78S
JACKSONVILLE   CLOUDY    79  74  82 SE7       29.78R
CONWAY           N/A     79  73  83 S12G23    29.73F
SEARCY         CLOUDY    78  73  84 S10       29.80R
HOT SPRINGS    PTCLDY    79  74  84 SE7       29.76R
RUSSELLVILLE   PTCLDY    72  69  90 SE6       29.71F
CLINTON        CLOUDY    64  64 100 CALM      29.76F FOG
$$

ARZ036-290500-
EAST ARKANSAS

CITY           SKY/WX    TMP DP  RH WIND       PRES   REMARKS
WEST MEMPHIS   CLEAR     78  71  79 S17       29.83R
$$

ARZ050-053-066-070-073-290500-
SOUTHWEST ARKANSAS

CITY           SKY/WX    TMP DP  RH WIND       PRES   REMARKS
ARKADELPHIA    CLOUDY    78  74  87 CALM      29.76R
CAMDEN         CLOUDY    81  68  65 SE13G23   29.76S
TEXARKANA      CLOUDY    80  72  76 S10       29.74R
EL DORADO      CLOUDY    80  71  74 SE17G25   29.78R HAZE
DE QUEEN       MOCLDY    79  74  84 SE6       29.70R
$$

ARZ056-057-069-290500-
SOUTHEAST ARKANSAS

CITY           SKY/WX    TMP DP  RH WIND       PRES   REMARKS
PINE BLUFF     MOCLDY    80  71  74 S14       29.80R
STUTTGART      PTCLDY    79  64  61 S13       29.81R
MONTICELLO     CLEAR     80  70  71 S10G20    29.81R

$$





USA.gov is the U.S. government's official web portal to all federal, state and local government web resources and services.